Apple Cup Yearling Classic - 1st Training Toss 2017

Station: Moxee Dump Rd - T Race

Distance: 4 Miles

Release: 20-Mar-2017 09:30

Weather Release:    Arrival:

Wind at Release: Windy     Wind at Arrival: Windy

Temp at Release: 40F°    Temp at Arrival: °

Lofts: 155

Birds: 608

Clocked: 594

Good Luck to Everyone!
Drops Pos Breeder Pigeon Name Color Sex Ent Arrival Speed To Win Eligible ABC
1 Little Reata Loft - TX 16224-AU16-JETT BC H 1 09:56:45.71 263.061 00:00:00 Lost
2 Salsloft.Com - UT 1020-AU16-SALS BB H 1 09:56:47.23 262.812 00:00:01 Lost
3 Afernhill - WA 1198-AU16-TAC BB H 1 09:56:48.97 262.528 00:00:03 Lost
4 Alan Porter - WI 0462-AU16-GUYS BB H 1 09:56:49.31 262.473 00:00:03 Lost
5 Haylett Loft - PA 64226-AU16-ARPU BB H 1 09:56:50.78 262.233 00:00:05 Yes
6 Tim Farr - WA 26279-AU16-AA Kristen's Good Boy BB C 1 09:56:51.56 262.106 00:00:05 Lost
7 Ken Easley & Son Racing - NM 4519-AU16-EASL BC H 1 09:56:53.34 261.817 00:00:07 Lost
8 Fl Lin Loft - FL 4369-AU16-ARPU BB H 1 09:56:54.45 261.637 00:00:08 Lost
9 Bird Dog Syndicate 2 - CA 0057-AU16-BURG DC H 1 09:56:54.96 261.554 00:00:09 Lost
10 Aimrude Syndicate - CA 15250-AU16-ARPU BB H 1 09:56:55.76 261.425 00:00:10 Lost
11 John Gutierrez - NM 25800-AU16-FOYS PIED H 1 09:56:57.72 261.108 00:00:12 Lost
12 Zarlenga Loft - CA 2521-AU16-FVC BB H 1 09:56:58.14 261.040 00:00:12 Lost
13 Ganus Family Loft - IN 0627-AU16-GFL BB H 1 09:56:58.73 260.945 00:00:13 Lost
14 Nanez Family Lofts - WI 6766-AU16-NFL THE IRON CLAD FAMILY BB H 1 09:56:59.21 260.868 00:00:13 Lost
15 Floridian Loft - FL 2582-AU16-SCHE DEN 82 BB H 1 09:56:59.63 260.800 00:00:13 Lost
16 Greek Connection - SC 0286-AU16-GREK PBx570 BB H 1 09:56:59.66 260.795 00:00:13 Lost
17 John Gutierrez - NM 25801-AU16-FOYS BB H 2 09:57:00.20 260.709 00:00:14 Lost
18 Cactus Lofts - BC 0925-AU16-AONE BB H 1 09:57:00.44 260.670 00:00:14 Yes
19 A-Champ & Rafter\'s Family Loft - TX 0050-AU16-CHAM BB H 1 09:57:00.81 260.610 00:00:15 Lost
20 Kim Wong - VT 20935-AU16-ARPU BBPD H 1 09:57:01.03 260.575 00:00:15 Yes
21 Wareagle Loft - AL 0265-AU16-WEL BB H 1 09:57:01.59 260.485 00:00:15 Lost
22 Bird Dog Syndicate 2 - CA 0018-AU16-BURG BB H 2 09:57:01.64 260.477 00:00:15 Lost
23 American Lofts - OR 7560-AU16-CORP Winner GRIZ H 1 09:57:02.18 260.390 00:00:16 Lost
24 Bynum Family Lofts - TX 0171-AU16-BFL BB H 1 09:57:03.06 260.249 00:00:17 Lost
25 P N W Challenge - ID 6188-AU16-PNWC "1297-10" BB H 1 09:57:03.28 260.214 00:00:17 Lost
26 Dream Team - VT 54101-AU16-ARPU BBPD H 1 09:57:03.44 260.188 00:00:17 Lost
27 Liab Family Loft - MN 0398-AU16-LIAB Inbred 019 BC H 1 09:57:04.31 260.049 00:00:18 Lost
28 Val & Bill - BC 1707-CU16-WCW RC H 1 09:57:05.73 259.822 00:00:20 Lost
29 Fl Lin Loft - FL 77780-AU16-ARPU BB H 2 09:57:05.78 259.814 00:00:20 Lost
30 Igor & Sons Loft - OR 10469-AU16-HOOD BC H 1 09:57:07.01 259.617 00:00:21 Lost
31 Ojibwe Loft - OK 64626-AU16-ARPU BB H 1 09:57:07.02 259.616 00:00:21 Lost
32 Flyhome Loft - CA 18454-AU16-JEDD BLAK H 1 09:57:07.29 259.573 00:00:21 Lost
33 Warbird Loft - CO 6311-AU16-FH King Santos BC H 1 09:57:07.31 259.569 00:00:21 Lost
34 Cactus Lofts - BC 0935-AU16-AONE BB H 2 09:57:07.90 259.475 00:00:22 Lost
35 Yong Sheng Chinese Pigeon Club - VA 20232-AU16-ARPU 永勝 232 BC C 1 09:57:08.12 259.440 00:00:22 Lost
36 Bird Dog Syndicate 2 - CA 0056-AU16-BURG BBSP H 3 09:57:08.21 259.426 00:00:22 Lost
37 Jones Boys - UT 7370-AU16-SLI BB H 1 09:57:08.86 259.322 00:00:23 Yes
38 Kim Wong - VT 20923-AU16-ARPU BC H 2 09:57:09.13 259.279 00:00:23 Yes
39 Stelling Loft - NM 0288-AU16-NMRP BB H 1 09:57:10.06 259.132 00:00:24 Lost
40 Wareagle Loft - AL 0237-AU16-WEL BC H 2 09:57:11.16 258.957 00:00:25 Lost
41 Horse Heaven Hills - OR 0676-AU16-HHH BB H 1 09:57:11.57 258.892 00:00:25 Lost
42 Floridian Loft - FL 2554-AU16-SCHE DEN 54 BB H 2 09:57:11.75 258.863 00:00:26 Lost
43 Spirit Loft - NE 0397-AU16-OMAH BB H 1 09:57:12.28 258.779 00:00:26 Lost
44 Ordonez Loft - CA 0466-AU16-FMT BB H 1 09:57:12.44 258.754 00:00:26 Lost
45 Floridian Loft - FL 2565-AU16-SCHE DEN 65 BB H 3 09:57:12.60 258.728 00:00:26 Missing
46 Floridian Loft - FL 2559-AU16-SCHE DEN 59 BB H 4 09:57:14.11 258.489 00:00:28 Lost
47 Floridian Loft - FL 2545-AU16-SCHE DEN 45 BC H 5 09:57:14.47 258.432 00:00:28 Lost
48 Fl Lin Loft - FL 4386-AU16-ARPU GRIZ H 3 09:57:14.61 258.410 00:00:28 Lost
49 Ed Kehl - UT 1684-AU16-WFA GRIZ H 1 09:57:15.25 258.309 00:00:29 Lost
50 Palomera - WA 0469-AU16-GSC Memo Palomera BC H 1 09:57:15.39 258.287 00:00:29 Lost
51 Silvercreek Loft - ON 0700-CU16-GUEL BC H 1 09:57:16.49 258.113 00:00:30 Lost
52 John Partridge - CA 0150-AU16-PASO BB H 1 09:57:16.54 258.106 00:00:30 Lost
53 Fassio/Royer Team - UT 6270-AU16-SLI BB H 1 09:57:16.88 258.052 00:00:31 Lost
54 3 Stars & A Sun Loft - TX 0038-AU16-STAR BB H 1 09:57:17.18 258.005 00:00:31 Missing
55 Kastle Loft - KY 1676-AU16-KAST Kastle Lucydon BB H 1 09:57:17.28 257.989 00:00:31 Lost
56 Arnold Balatbat - CA 62429-AU16-MAN Iowa BCWF H 1 09:57:17.69 257.924 00:00:31 Lost
57 Bourgoin Family Lofts - MN 88976-AU16-ARPU Ludo-Stoll-Klaas BC H 1 09:57:19.07 257.707 00:00:33 Lost
58 Mc Cormick Loft - CA 0719-AU16-WEF BLK H 1 09:57:19.18 257.690 00:00:33 Lost
59 John Mc Cullough - NM 0563-AU16-NMRP BC H 1 09:57:19.82 257.589 00:00:34 Yes
60 Western Loft - CA 0341-AU16-CHUI BB H 1 09:57:20.12 257.542 00:00:34 Yes
61 Silvercreek Loft - ON 1787-CU16-SILV BCPD H 2 09:57:20.44 257.492 00:00:34 Lost
62 Little Reata Loft - TX 16216-AU16-JETT BB H 2 09:57:21.27 257.362 00:00:35 Lost
63 Little Reata Loft - TX 16225-AU16-JETT BC H 3 09:57:21.29 257.359 00:00:35 Missing
64 Alan Porter - WI 0472-AU16-GUYS BC H 2 09:57:21.51 257.324 00:00:35 Lost
65 Twin Loft & Joe - MD 62399-IF16-BWI Dink BB H 1 09:57:21.53 257.321 00:00:35 Missing
66 Torontotrifecta.Com - ON 26525-AU16-JEDD BBPD H 1 09:57:21.83 257.274 00:00:36 Lost
67 Dream Team - VT 3496-IF16-MH BCWF H 2 09:57:22.05 257.239 00:00:36 Lost
68 Dream Team - VT 54119-AU16-ARPU DC H 3 09:57:22.12 257.228 00:00:36 Lost
69 Torontotrifecta.Com - ON 26560-AU16-JEDD BB H 2 09:57:22.34 257.194 00:00:36 Lost
70 Floridian Loft - FL 2591-AU16-SCHE DEN 91 BC H 6 09:57:22.36 257.191 00:00:36 Yes
71 Nemelka Racing Pigeon Loft - UT 6746-AU16-NRPL Superstitious X 5016 BB H 1 09:57:22.93 257.102 00:00:37 Lost
72 Dream Loft-Silvercreek - MI 41006-AU16-AA BB H 1 09:57:23.25 257.052 00:00:37 Yes
73 Vipermann Loft - KS 0013-AU16-VIPR BB H 1 09:57:23.49 257.014 00:00:37 Lost
74 Ling Lu - VA 0167-AU16-LING BB H 1 09:57:23.73 256.977 00:00:38 Lost
75 Fl Lin Loft - FL 4385-AU16-ARPU BB H 4 09:57:23.86 256.956 00:00:38 Lost
76 Warbird Loft - CO 6318-AU16-FH Wilanka Flash BB H 2 09:57:24.00 256.934 00:00:38 Lost
77 Roy Kinser - VA 23579-AU16-FOYS BBWF H 1 09:57:24.47 256.861 00:00:38 Yes
78 Kfly Racing Pigeon Loft - ID 1677-AU16-KFLY TOC Stichelbaut x Ruby RB C 1 09:57:24.88 256.797 00:00:39 Lost
79 American Lofts - OR 7540-AU16-CORP Mike GRIZ H 2 09:57:25.19 256.748 00:00:39 Lost
80 A-Champ & Rafter\'s Family Loft - TX 0045-AU16-CHAM BB H 2 09:57:25.23 256.742 00:00:39 Yes
81 Cal-Tex Loft - CA 2767-AU16-MTZ Repeat Shot BC H 1 09:57:25.34 256.725 00:00:39 Yes
82 Little Reata Loft - TX 16230-AU16-JETT BC H 4 09:57:26.53 256.540 00:00:40 Yes
83 Tim Farr - WA 26274-AU16-AA 105x215 BC H 2 09:57:27.50 256.388 00:00:41 Lost
84 P N W Challenge - ID 6184-AU16-PNWC "1072-6033" BB H 2 09:57:27.63 256.368 00:00:41 Lost
85 Little Reata Loft - TX 16199-AU16-JETT BB H 5 09:57:27.72 256.354 00:00:42 Lost
86 Racing Pigeon Mall - WA 0630-AU16-RPM BLK H 1 09:57:27.80 256.342 00:00:42 Lost
87 Kwan Loft - CA 0698-AU16-KWAN DCWF H 1 09:57:28.70 256.202 00:00:42 Yes
88 Greek Connection - SC 0278-AU16-GREK 321 BC H 2 09:57:28.83 256.182 00:00:43 Lost
89 Val & Bill - BC 1706-CU16-WCW BB H 2 09:57:28.96 256.161 00:00:43 Yes
90 Jones Boys - UT 6696-AU16-SLI BB H 2 09:57:29.85 256.023 00:00:44 Lost
91 Alan Porter - WI 0481-AU16-GUYS BB H 3 09:57:30.07 255.989 00:00:44 Lost
92 Batinic Racing Team - CA 76459-AU16-ARPU Survivor BB H 1 09:57:30.12 255.981 00:00:44 Lost
93 Cactus Lofts - BC 0924-AU16-AONE BC H 3 09:57:30.30 255.953 00:00:44 Yes
94 H N R Walker - WA 0489-AU16-YAK Sterling BBWF H 1 09:57:30.34 255.947 00:00:44 Lost
95 Wiltz & Canto - TX 5092-AU16-TEXA BBWF H 1 09:57:30.42 255.935 00:00:44 Lost
96 Bynum Family Lofts - TX 0110-AU16-BFL BB H 2 09:57:31.13 255.825 00:00:45 Lost
97 Fassio/Royer Team - UT 6394-AU16-SLI BB H 2 09:57:31.17 255.819 00:00:45 Lost
98 Lulus Loft - CA 0424-AU16-SD 27164 x 232 BB H 1 09:57:32.52 255.610 00:00:46 Lost
99 Kwan Loft - CA 0691-AU16-KWAN BC H 2 09:57:33.62 255.440 00:00:47 Lost
100 A-Lin Loft - ME 36378-AU16-AA BC H 1 09:57:34.07 255.370 00:00:48 Lost

There are 114 bird records

Note: These Race Results are unofficial and subject to change until verified by the Race Committee and declared final.


Click for forecast!